Time,TemperatureF,DewpointF,PressureIn,WindDirection,WindDirectionDegrees,WindSpeedMPH,WindSpeedGustMPH,Humidity,HourlyPrecipIn,Conditions,Clouds,dailyrainin,SoftwareType,DateUTC
2013-07-10 00:00:00,70.9,62.0,30.00,North,-999,-999.0,-999.0,73,-99.99,,,-99.99,Netatmo,2013-07-09 22:00:00,
2013-07-10 00:05:00,70.9,62.0,30.00,North,-999,-999.0,-999.0,73,-99.99,,,-99.99,Netatmo,2013-07-09 22:05:00,
2013-07-10 00:10:00,70.7,61.4,30.00,North,-999,-999.0,-999.0,72,-99.99,,,-99.99,Netatmo,2013-07-09 22:10:00,
2013-07-10 06:50:00,68.9,61.5,29.97,North,-999,-999.0,-999.0,77,-99.99,,,-99.99,Netatmo,2013-07-10 04:50:00,
2013-07-10 06:59:00,69.1,62.0,29.97,North,-999,-999.0,-999.0,78,-99.99,,,-99.99,Netatmo,2013-07-10 04:59:00,
2013-07-10 07:05:00,69.1,62.0,29.97,North,-999,-999.0,-999.0,78,-99.99,,,-99.99,Netatmo,2013-07-10 05:05:00,
2013-07-10 07:10:00,69.4,62.0,29.97,North,-999,-999.0,-999.0,77,-99.99,,,-99.99,Netatmo,2013-07-10 05:10:00,
2013-07-10 07:15:00,69.4,62.0,29.97,North,-999,-999.0,-999.0,77,-99.99,,,-99.99,Netatmo,2013-07-10 05:15:00,
2013-07-10 07:20:00,70.0,62.2,29.97,North,-999,-999.0,-999.0,76,-99.99,,,-99.99,Netatmo,2013-07-10 05:20:00,
2013-07-10 07:25:00,70.0,62.2,29.97,North,-999,-999.0,-999.0,76,-99.99,,,-99.99,Netatmo,2013-07-10 05:25:00,
2013-07-10 07:30:00,70.2,62.4,29.98,North,-999,-999.0,-999.0,76,-99.99,,,-99.99,Netatmo,2013-07-10 05:30:00,
2013-07-10 07:35:00,70.2,62.4,29.98,North,-999,-999.0,-999.0,76,-99.99,,,-99.99,Netatmo,2013-07-10 05:35:00,
2013-07-10 07:40:00,70.3,62.2,29.98,North,-999,-999.0,-999.0,75,-99.99,,,-99.99,Netatmo,2013-07-10 05:40:00,
2013-07-10 07:45:00,70.3,62.2,29.98,North,-999,-999.0,-999.0,75,-99.99,,,-99.99,Netatmo,2013-07-10 05:45:00,
2013-07-10 07:50:00,70.5,62.7,29.98,North,-999,-999.0,-999.0,76,-99.99,,,-99.99,Netatmo,2013-07-10 05:50:00,
2013-07-10 07:55:00,70.5,62.7,29.98,North,-999,-999.0,-999.0,76,-99.99,,,-99.99,Netatmo,2013-07-10 05:55:00,
2013-07-10 18:55:00,79.3,69.3,29.91,North,-999,-999.0,-999.0,71,-99.99,,,-99.99,Netatmo,2013-07-10 16:55:00,
2013-07-10 19:00:00,79.3,69.3,29.91,North,-999,-999.0,-999.0,71,-99.99,,,-99.99,Netatmo,2013-07-10 17:00:00,
2013-07-10 19:05:00,79.2,69.2,29.91,North,-999,-999.0,-999.0,71,-99.99,,,-99.99,Netatmo,2013-07-10 17:05:00,
2013-07-10 19:10:00,79.2,69.2,29.91,North,-999,-999.0,-999.0,71,-99.99,,,-99.99,Netatmo,2013-07-10 17:10:00,
2013-07-10 19:20:00,79.0,69.0,29.90,North,-999,-999.0,-999.0,71,-99.99,,,-99.99,Netatmo,2013-07-10 17:20:00,
2013-07-10 19:30:00,79.0,69.0,29.91,North,-999,-999.0,-999.0,71,-99.99,,,-99.99,Netatmo,2013-07-10 17:30:00,
2013-07-10 19:38:00,78.8,68.8,29.91,North,-999,-999.0,-999.0,71,-99.99,,,-99.99,Netatmo,2013-07-10 17:38:00,
2013-07-10 19:43:00,78.8,68.8,29.91,North,-999,-999.0,-999.0,71,-99.99,,,-99.99,Netatmo,2013-07-10 17:43:00,
2013-07-10 20:15:00,78.1,66.5,29.91,North,-999,-999.0,-999.0,67,-99.99,,,-99.99,Netatmo,2013-07-10 18:15:00,
2013-07-10 20:20:00,77.9,66.7,29.91,North,-999,-999.0,-999.0,68,-99.99,,,-99.99,Netatmo,2013-07-10 18:20:00,
2013-07-10 20:25:00,77.9,66.7,29.91,North,-999,-999.0,-999.0,68,-99.99,,,-99.99,Netatmo,2013-07-10 18:25:00,